Regional Weather Roundup
Issued by NWS

Home | Current Version | Previous Version | Graphics & Text | Print | Product List | Glossary On
Versions: 1 2 3 4 5 6 7 8 9 10 11 12 13 14 15 16 17 18 19 20 21 22 23 24 25 26 27
000
ASUS45 KBOU 200707
RWRCO

WEATHER ROUNDUP FOR COLORADO
NATIONAL WEATHER SERVICE DENVER/BOULDER CO
1200 AM MST MON FEB 20 2017

NOTE: "FAIR" INDICATES FEW OR NO CLOUDS BELOW 12000 FEET WITH NO
SIGNIFICANT WEATHER AND/OR OBSTRUCTIONS TO VISIBILITY.

COZ001>005-013-030-031-200800-
...NORTHWEST COLORADO...

CITY           SKY/WX    TMP DP  RH WIND       PRES   REMARKS
CRAIG          MOCLDY    29  25  85 CALM      30.00R
HAYDEN         CLOUDY    30  25  80 CALM      29.99R
MEEKER         FAIR      30  29  96 NE6       30.00R WCI  24
MOUNT WERNER   NOT AVBL
STEAMBOAT SPGS CLOUDY    30  29  96 CALM      29.98R
WALDEN         NOT AVBL
$$

COZ006>008-011-200800-
...WEST CENTRAL VALLEYS...

CITY           SKY/WX    TMP DP  RH WIND       PRES   REMARKS
GRAND JUNCTION CLOUDY    40  40 100 CALM      30.00R
MONTROSE       CLOUDY    36  35  96 S7        30.03R
EAGLE          MOCLDY    34  32  92 CALM      30.01R
RIFLE          MOCLDY    39  36  89 SW8       29.99R
DELTA          CLOUDY    41  38  91 CALM      30.02R
NUCLA          FAIR      34  32  93 E7        30.06R WCI  28
$$

COZ017>023-064>068-200800-
...SOUTHWEST COLORADO...

CITY           SKY/WX    TMP DP  RH WIND       PRES   REMARKS
DURANGO        MOCLDY    34  31  88 W7        29.98S WCI  28
CORTEZ         CLOUDY    36  35  96 NE6       30.03R
PAGOSA SPRINGS CLOUDY    32  32 100 CALM      29.99S
TELLURIDE      NOT AVBL
WOLF CREEK PAS SNOW      16  16 100 S17       30.02R VSB 1/4 WCI   0
$$

COZ009-010-012-014-032>034-037-058>063-200800-
...CENTRAL COLORADO...

CITY           SKY/WX    TMP DP  RH WIND       PRES   REMARKS
ASPEN          CLOUDY    32  30  92 N8        29.98R WCI  25
BUENA VISTA    FAIR      33  24  68 NE7       29.86R WCI  27
COPPER MTN     CLOUDY    23  18  80 MISG      29.95R
BERTHOUD PASS  HVY SNOW  12   3  67 MISG      29.84R VSB<1/4
COTTONWOOD PAS FLURRIES  32  19  59 SW18G33   29.87R WCI  20
GUNNISON       MOCLDY    31  29  92 W6        29.96R WCI  25
KREMMLING      CLOUDY    36  27  69 CALM      29.98R
LEADVILLE      LGT SNOW  24  19  81 N14G22    29.93R WCI  12
MONARCH PASS   FOG       19  18  93 W43G48    29.97R VSB<1/4 WCI  -2
SALIDA         FAIR      39  22  49 W16       29.91R
SUNLIGHT       NOT AVBL
WILKERSON PASS MOCLDY    21  18  86 N16G28    29.90R WCI   7
$$

COZ069>075-200800-
...SAN LUIS VALLEY/SANGRE DE CRISTO MOUNTAINS...

CITY           SKY/WX    TMP DP  RH WIND       PRES   REMARKS
ALAMOSA        CLOUDY    32  25  75 S3        29.91R
LA VETA PASS   CLOUDY    23  19  86 NE30G43   29.87R WCI   5
SAGUACHE       CLOUDY    34  23  64 CALM      29.91R
$$

COZ035-036-038>040-200800-
...NORTHERN COLORADO FRONT RANGE...

CITY           SKY/WX    TMP DP  RH WIND       PRES   REMARKS
DENVER INTL AP CLOUDY    45  34  65 N8        29.76R
DMNS CITY PARK   N/A     47  33  60 E7        29.77R
AURORA         MOCLDY    42  38  85 NE5       29.77R
FRONT RANGE AP CLOUDY    45  36  70 N6        29.77R
ERIE MUNI ARPT FAIR      45  33  63 SW7       29.75R
BOULDER MUN AP FAIR      50  19  29 W26G35    29.74S
CENTENNIAL     MOCLDY    48  22  35 NW20G26   29.77R
BROOMFIELD     FAIR      45  28  53 W9        29.77R
FORT COLLINS   FAIR      49  19  30 NW24G33   29.75R
LONGMONT       FAIR      45  37  73 CALM      29.76R
$$

COZ041-046-047-076>085-087-088-200800-
...PIKES PEAK/PALMER DIVIDE AND SOUTHERN FOOTHILLS...

CITY           SKY/WX    TMP DP  RH WIND       PRES   REMARKS
COLO. SPRINGS  MOCLDY    46  25  43 NW17G29   29.75R
A. F. ACADEMY  FAIR      40  26  58 N10       29.76R
SCHRIEVER AFB  FAIR      40  27  59 N8G20     29.75R
ELLICOTT       FAIR     N/A N/A N/A N10       29.74R
FALCON         MOCLDY    40  26  56 NW13G23   29.77R
FORT CARSON    MOCLDY    44  21  40 NW12      29.72R
LIMON          FAIR      43  34  70 NW18G26   29.73R
MONUMENT HILL  CLOUDY    37  28  70 NW8       29.79R
TRINIDAD       FAIR      39  19  44 W16       29.76S
$$

COZ042>045-048>051-090-091-200800-
...NORTHEAST COLORADO...

CITY           SKY/WX    TMP DP  RH WIND       PRES   REMARKS
GREELEY ARPT   FAIR      46  26  45 NW20      29.76R
AKRON          FAIR      46  34  62 NW26      29.71R
BURLINGTON     FAIR      46  32  58 S15       29.68R
WRAY           NOT AVBL
STERLING       CLOUDY    50  36  57 NW30G37   29.69R
HOLYOKE        FAIR      48  32  53 SW5       29.65R
FORT MORGAN    CLOUDY    47  34  60 NW16G23   29.74R
$$

COZ086-089-092>099-200800-
...SOUTHEAST COLORADO...

CITY           SKY/WX    TMP DP  RH WIND       PRES   REMARKS
PUEBLO         CLOUDY    48  24  39 N3        29.73R
LA JUNTA       FAIR      46  23  40 W20       29.69R
LAMAR          FAIR      38  25  59 SW9       29.65F
SPRINGFIELD      N/A     35  26  69 SW9       29.68F WCI  28
$$




USA.gov is the U.S. government's official web portal to all federal, state and local government web resources and services.